Location: Newark
(44.1667°N, 8.2500°E)
Time: 09:29:31
(UTC+00:00)

Envisat - Pass Details

Date: 15 November 2019
Orbit: 764 x 766 km, 98.1° (Epoch: 07 December)

Event Time Altitude Azimuth Distance (km) Brightness Sun altitude
Rises 16:24:41 0° 134° (SE) 3,223 6.0 -4.8°
Reaches altitude 10° 16:27:15 10° 123° (ESE) 2,300 5.1 -5.2°
Maximum altitude 16:31:31 28° 66° (ENE) 1,403 3.8 -5.9°
Drops below altitude 10° 16:35:49 10° 8° (N) 2,313 5.2 -6.6°
Sets 16:38:23 0° 357° (N) 3,243 6.1 -7.1°
